Time,TemperatureF,DewpointF,PressureIn,WindDirection,WindDirectionDegrees,WindSpeedMPH,WindSpeedGustMPH,Humidity,HourlyPrecipIn,Conditions,Clouds,dailyrainin,SoftwareType,DateUTC
2013-09-10 00:00:00,69.2,66.5,30.15,WNW,287,0.0,0.0,91,0.00,,,0.00,Wunderground v.1.15,2013-09-10 04:00:00,
2013-09-10 00:10:00,69.1,66.4,30.15,WNW,287,0.0,0.0,91,0.00,,,0.00,Wunderground v.1.15,2013-09-10 04:10:00,
2013-09-10 00:20:00,69.0,66.3,30.15,WNW,287,0.0,0.0,91,0.00,,,0.00,Wunderground v.1.15,2013-09-10 04:20:00,
2013-09-10 00:30:00,69.1,66.7,30.16,WNW,287,0.0,0.0,92,0.00,,,0.00,Wunderground v.1.15,2013-09-10 04:30:00,
2013-09-10 00:40:00,69.1,66.7,30.16,WNW,287,0.0,0.0,92,0.00,,,0.00,Wunderground v.1.15,2013-09-10 04:40:00,
2013-09-10 00:50:00,69.1,66.7,30.15,WNW,287,0.0,0.0,92,0.00,,,0.00,Wunderground v.1.15,2013-09-10 04:50:00,
2013-09-10 01:00:00,68.8,66.4,30.15,WNW,287,0.0,0.0,92,0.00,,,0.00,Wunderground v.1.15,2013-09-10 05:00:00,
2013-09-10 01:10:00,68.6,66.2,30.16,WNW,287,0.0,0.0,92,0.00,,,0.00,Wunderground v.1.15,2013-09-10 05:10:00,
2013-09-10 01:20:00,68.5,66.1,30.16,WNW,287,0.0,0.0,92,0.00,,,0.00,Wunderground v.1.15,2013-09-10 05:20:00,
2013-09-10 01:30:00,68.3,65.9,30.16,WNW,287,0.0,0.0,92,0.00,,,0.00,Wunderground v.1.15,2013-09-10 05:30:00,
2013-09-10 01:40:00,68.1,65.7,30.16,WNW,287,0.0,0.0,92,0.00,,,0.00,Wunderground v.1.15,2013-09-10 05:40:00,
2013-09-10 01:50:00,68.0,65.6,30.16,WNW,287,0.0,0.0,92,0.00,,,0.00,Wunderground v.1.15,2013-09-10 05:50:00,
2013-09-10 02:00:00,68.0,65.9,30.16,WNW,287,0.0,0.0,93,0.00,,,0.00,Wunderground v.1.15,2013-09-10 06:00:00,
2013-09-10 02:10:00,68.0,65.9,30.17,WNW,287,0.0,0.0,93,0.00,,,0.00,Wunderground v.1.15,2013-09-10 06:10:00,
2013-09-10 02:20:00,68.0,65.9,30.17,WNW,287,0.0,0.0,93,0.00,,,0.00,Wunderground v.1.15,2013-09-10 06:20:00,
2013-09-10 02:30:00,68.0,65.9,30.17,WNW,287,0.0,0.0,93,0.00,,,0.00,Wunderground v.1.15,2013-09-10 06:30:00,
2013-09-10 02:40:00,67.9,65.8,30.17,WNW,287,0.0,0.0,93,0.00,,,0.00,Wunderground v.1.15,2013-09-10 06:40:00,
2013-09-10 02:50:00,67.9,65.8,30.17,WNW,287,0.0,0.0,93,0.00,,,0.00,Wunderground v.1.15,2013-09-10 06:50:00,
2013-09-10 03:00:00,67.5,65.1,30.17,WNW,287,0.0,0.0,92,0.00,,,0.00,Wunderground v.1.15,2013-09-10 07:00:00,
2013-09-10 03:10:00,67.2,65.1,30.17,WNW,287,0.0,0.0,93,0.00,,,0.00,Wunderground v.1.15,2013-09-10 07:10:00,
2013-09-10 03:20:00,67.0,64.9,30.17,WNW,287,0.0,0.0,93,0.00,,,0.00,Wunderground v.1.15,2013-09-10 07:20:00,
2013-09-10 03:30:00,66.7,64.6,30.17,WNW,287,0.0,0.0,93,0.00,,,0.00,Wunderground v.1.15,2013-09-10 07:30:00,
2013-09-10 03:40:00,66.5,64.4,30.17,WNW,287,0.0,0.0,93,0.00,,,0.00,Wunderground v.1.15,2013-09-10 07:40:00,
2013-09-10 03:50:00,66.4,64.3,30.17,WNW,287,0.0,0.0,93,0.00,,,0.00,Wunderground v.1.15,2013-09-10 07:50:00,
2013-09-10 04:00:00,66.3,64.2,30.17,WNW,287,0.0,0.0,93,0.00,,,0.00,Wunderground v.1.15,2013-09-10 08:00:00,
2013-09-10 04:10:00,66.3,64.2,30.17,WNW,287,0.0,0.0,93,0.00,,,0.00,Wunderground v.1.15,2013-09-10 08:10:00,
2013-09-10 04:20:00,66.1,64.0,30.17,WNW,287,0.0,0.0,93,0.00,,,0.00,Wunderground v.1.15,2013-09-10 08:20:00,
2013-09-10 04:30:00,66.0,63.9,30.18,WNW,287,0.0,0.0,93,0.00,,,0.00,Wunderground v.1.15,2013-09-10 08:30:00,
2013-09-10 04:40:00,66.0,63.9,30.18,WNW,287,0.0,0.0,93,0.00,,,0.00,Wunderground v.1.15,2013-09-10 08:40:00,
2013-09-10 04:50:00,65.8,63.7,30.18,WNW,287,0.0,0.0,93,0.00,,,0.00,Wunderground v.1.15,2013-09-10 08:50:00,
2013-09-10 05:00:00,65.7,63.6,30.18,WNW,287,0.0,0.0,93,0.00,,,0.00,Wunderground v.1.15,2013-09-10 09:00:00,
2013-09-10 05:10:00,65.6,63.5,30.19,WNW,287,0.0,0.0,93,0.00,,,0.00,Wunderground v.1.15,2013-09-10 09:10:00,
2013-09-10 05:20:00,65.4,63.3,30.19,WNW,287,0.0,0.0,93,0.00,,,0.00,Wunderground v.1.15,2013-09-10 09:20:00,
2013-09-10 05:30:00,65.2,63.1,30.19,WNW,287,0.0,0.0,93,0.00,,,0.00,Wunderground v.1.15,2013-09-10 09:30:00,
2013-09-10 05:40:00,65.0,62.9,30.19,WNW,287,0.0,0.0,93,0.00,,,0.00,Wunderground v.1.15,2013-09-10 09:40:00,
2013-09-10 05:50:00,64.9,62.8,30.20,WNW,287,0.0,0.0,93,0.00,,,0.00,Wunderground v.1.15,2013-09-10 09:50:00,
2013-09-10 06:00:00,64.8,62.7,30.20,WNW,287,0.0,0.0,93,0.00,,,0.00,Wunderground v.1.15,2013-09-10 10:00:00,
2013-09-10 06:10:00,64.7,62.6,30.20,WNW,287,0.0,0.0,93,0.00,,,0.00,Wunderground v.1.15,2013-09-10 10:10:00,
2013-09-10 06:20:00,64.5,62.4,30.20,WNW,287,0.0,0.0,93,0.00,,,0.00,Wunderground v.1.15,2013-09-10 10:20:00,
2013-09-10 06:30:00,64.4,62.3,30.19,WNW,287,0.0,0.0,93,0.00,,,0.00,Wunderground v.1.15,2013-09-10 10:30:00,
2013-09-10 06:40:00,64.3,62.5,30.20,WNW,287,0.0,0.0,94,0.00,,,0.00,Wunderground v.1.15,2013-09-10 10:40:00,
2013-09-10 06:50:00,64.1,62.3,30.20,WNW,287,0.0,0.0,94,0.00,,,0.00,Wunderground v.1.15,2013-09-10 10:50:00,
2013-09-10 07:00:00,64.1,62.3,30.21,WNW,287,0.0,0.0,94,0.00,,,0.00,Wunderground v.1.15,2013-09-10 11:00:00,
2013-09-10 07:10:00,64.1,62.3,30.21,WNW,287,0.0,0.0,94,0.00,,,0.00,Wunderground v.1.15,2013-09-10 11:10:00,
2013-09-10 07:20:00,64.1,62.3,30.22,WNW,287,0.0,0.0,94,0.00,,,0.00,Wunderground v.1.15,2013-09-10 11:20:00,
2013-09-10 07:30:00,64.1,62.3,30.21,WNW,287,0.0,0.0,94,0.00,,,0.00,Wunderground v.1.15,2013-09-10 11:30:00,
2013-09-10 07:40:00,64.1,62.3,30.21,WNW,287,0.0,0.0,94,0.00,,,0.00,Wunderground v.1.15,2013-09-10 11:40:00,
2013-09-10 07:50:00,64.2,62.4,30.21,WNW,287,0.0,0.0,94,0.00,,,0.00,Wunderground v.1.15,2013-09-10 11:50:00,
2013-09-10 08:00:00,64.4,62.6,30.21,WNW,287,0.0,0.0,94,0.00,,,0.00,Wunderground v.1.15,2013-09-10 12:00:00,
2013-09-10 08:10:00,64.9,63.1,30.21,WNW,287,0.0,0.0,94,0.00,,,0.00,Wunderground v.1.15,2013-09-10 12:10:00,
2013-09-10 08:20:00,65.3,63.5,30.21,WNW,287,0.0,0.0,94,0.00,,,0.00,Wunderground v.1.15,2013-09-10 12:20:00,
2013-09-10 08:30:00,65.7,63.9,30.21,WNW,287,0.0,0.0,94,0.00,,,0.00,Wunderground v.1.15,2013-09-10 12:30:00,
2013-09-10 08:40:00,66.3,64.8,30.21,WNW,287,0.0,0.0,95,0.00,,,0.00,Wunderground v.1.15,2013-09-10 12:40:00,
2013-09-10 08:50:00,67.2,65.7,30.22,WNW,287,0.0,0.0,95,0.00,,,0.00,Wunderground v.1.15,2013-09-10 12:50:00,
2013-09-10 09:00:00,68.2,66.7,30.22,WNW,287,0.0,0.0,95,0.00,,,0.00,Wunderground v.1.15,2013-09-10 13:00:00,
2013-09-10 09:10:00,69.4,67.9,30.22,WNW,287,0.0,0.0,95,0.00,,,0.00,Wunderground v.1.15,2013-09-10 13:10:00,
2013-09-10 09:20:00,70.6,69.1,30.22,WNW,287,0.0,0.0,95,0.00,,,0.00,Wunderground v.1.15,2013-09-10 13:20:00,
2013-09-10 09:30:00,71.6,70.1,30.22,WNW,287,0.0,0.0,95,0.00,,,0.00,Wunderground v.1.15,2013-09-10 13:30:00,
2013-09-10 09:40:00,72.6,70.8,30.23,WNW,287,0.0,0.0,94,0.00,,,0.00,Wunderground v.1.15,2013-09-10 13:40:00,
2013-09-10 09:50:00,73.6,71.4,30.23,NNW,344,0.0,1.0,93,0.00,,,0.00,Wunderground v.1.15,2013-09-10 13:50:00,
2013-09-10 10:00:00,74.6,72.1,30.23,NNW,344,0.0,0.0,92,0.00,,,0.00,Wunderground v.1.15,2013-09-10 14:00:00,
2013-09-10 10:10:00,75.5,72.7,30.23,NNW,344,0.0,1.0,91,0.00,,,0.00,Wunderground v.1.15,2013-09-10 14:10:00,
2013-09-10 10:20:00,76.7,73.2,30.23,NNW,344,0.0,0.0,89,0.00,,,0.00,Wunderground v.1.15,2013-09-10 14:20:00,
2013-09-10 10:30:00,77.5,73.3,30.23,NNW,344,0.0,0.0,87,0.00,,,0.00,Wunderground v.1.15,2013-09-10 14:30:00,
2013-09-10 10:40:00,77.9,73.4,30.23,WNW,290,0.0,0.0,86,0.00,,,0.00,Wunderground v.1.15,2013-09-10 14:40:00,
2013-09-10 10:50:00,78.3,73.4,30.23,WNW,291,0.0,0.0,85,0.00,,,0.00,Wunderground v.1.15,2013-09-10 14:50:00,
2013-09-10 11:00:00,79.8,74.5,30.23,WNW,303,0.0,0.0,84,0.00,,,0.00,Wunderground v.1.15,2013-09-10 15:00:00,
2013-09-10 11:10:00,81.2,74.4,30.23,NW,325,0.0,1.0,80,0.00,,,0.00,Wunderground v.1.15,2013-09-10 15:10:00,
2013-09-10 11:20:00,82.5,74.9,30.23,NNW,327,0.0,0.0,78,0.00,,,0.00,Wunderground v.1.15,2013-09-10 15:20:00,
2013-09-10 11:30:00,83.1,75.1,30.23,WSW,257,1.0,1.0,77,0.00,,,0.00,Wunderground v.1.15,2013-09-10 15:30:00,
2013-09-10 11:40:00,83.3,74.9,30.23,SSW,210,1.0,1.0,76,0.00,,,0.00,Wunderground v.1.15,2013-09-10 15:40:00,
2013-09-10 11:50:00,83.9,75.5,30.23,SE,142,1.0,1.0,76,0.00,,,0.00,Wunderground v.1.15,2013-09-10 15:50:00,
2013-09-10 12:00:00,84.2,75.4,30.23,SSE,150,1.0,2.0,75,0.00,,,0.00,Wunderground v.1.15,2013-09-10 16:00:00,
2013-09-10 12:10:00,84.2,74.6,30.22,South,186,1.0,2.0,73,0.00,,,0.00,Wunderground v.1.15,2013-09-10 16:10:00,
2013-09-10 12:20:00,85.1,75.5,30.23,North,355,1.0,1.0,73,0.00,,,0.00,Wunderground v.1.15,2013-09-10 16:20:00,
2013-09-10 12:30:00,86.0,75.1,30.22,WSW,248,1.0,1.0,70,0.00,,,0.00,Wunderground v.1.15,2013-09-10 16:30:00,
2013-09-10 12:40:00,85.9,75.4,30.22,SSE,148,1.0,1.0,71,0.00,,,0.00,Wunderground v.1.15,2013-09-10 16:40:00,
2013-09-10 12:50:00,86.6,74.8,30.22,NE,46,0.0,1.0,68,0.00,,,0.00,Wunderground v.1.15,2013-09-10 16:50:00,
2013-09-10 13:00:00,86.8,74.5,30.22,NE,36,1.0,1.0,67,0.00,,,0.00,Wunderground v.1.15,2013-09-10 17:00:00,
2013-09-10 13:10:00,86.8,73.2,30.22,ENE,75,1.0,1.0,64,0.00,,,0.00,Wunderground v.1.15,2013-09-10 17:10:00,
2013-09-10 13:20:00,86.6,74.3,30.21,ENE,78,0.0,0.0,67,0.00,,,0.00,Wunderground v.1.15,2013-09-10 17:20:00,
2013-09-10 13:30:00,88.2,74.5,30.22,NNE,21,0.0,2.0,64,0.00,,,0.00,Wunderground v.1.15,2013-09-10 17:30:00,
2013-09-10 13:40:00,88.4,74.2,30.21,NNE,17,1.0,1.0,63,0.00,,,0.00,Wunderground v.1.15,2013-09-10 17:40:00,
2013-09-10 13:50:00,88.9,73.7,30.21,NNE,17,0.0,1.0,61,0.00,,,0.00,Wunderground v.1.15,2013-09-10 17:50:00,
2013-09-10 14:00:00,88.8,73.6,30.20,NNE,17,0.0,0.0,61,0.00,,,0.00,Wunderground v.1.15,2013-09-10 18:00:00,
2013-09-10 14:10:00,88.7,73.0,30.19,NNE,17,1.0,1.0,60,0.00,,,0.00,Wunderground v.1.15,2013-09-10 18:10:00,
2013-09-10 14:20:00,88.2,74.5,30.19,NNE,17,0.0,2.0,64,0.00,,,0.00,Wunderground v.1.15,2013-09-10 18:20:00,
2013-09-10 14:30:00,87.4,74.6,30.19,SSE,162,1.0,1.0,66,0.00,,,0.00,Wunderground v.1.15,2013-09-10 18:30:00,
2013-09-10 14:40:00,87.3,72.7,30.19,NW,311,0.0,1.0,62,0.00,,,0.00,Wunderground v.1.15,2013-09-10 18:40:00,
2013-09-10 14:50:00,87.4,73.3,30.19,NW,310,0.0,0.0,63,0.00,,,0.00,Wunderground v.1.15,2013-09-10 18:50:00,
2013-09-10 15:00:00,86.8,71.7,30.18,NW,315,0.0,1.0,61,0.00,,,0.00,Wunderground v.1.15,2013-09-10 19:00:00,
2013-09-10 15:10:00,86.3,72.7,30.17,NW,315,0.0,0.0,64,0.00,,,0.00,Wunderground v.1.15,2013-09-10 19:10:00,
2013-09-10 15:20:00,86.8,71.7,30.17,NW,315,0.0,0.0,61,0.00,,,0.00,Wunderground v.1.15,2013-09-10 19:20:00,
2013-09-10 15:30:00,87.0,73.3,30.17,NW,312,1.0,1.0,64,0.00,,,0.00,Wunderground v.1.15,2013-09-10 19:30:00,
2013-09-10 15:40:00,86.5,74.2,30.17,NW,311,0.0,0.0,67,0.00,,,0.00,Wunderground v.1.15,2013-09-10 19:40:00,
2013-09-10 15:50:00,86.1,71.6,30.17,NW,313,0.0,0.0,62,0.00,,,0.00,Wunderground v.1.15,2013-09-10 19:50:00,
2013-09-10 16:00:00,86.1,70.6,30.16,NW,314,0.0,0.0,60,0.00,,,0.00,Wunderground v.1.15,2013-09-10 20:00:00,
2013-09-10 16:10:00,86.6,71.5,30.16,NW,314,0.0,0.0,61,0.00,,,0.00,Wunderground v.1.15,2013-09-10 20:10:00,
2013-09-10 16:20:00,86.5,71.0,30.15,West,264,0.0,0.0,60,0.00,,,0.00,Wunderground v.1.15,2013-09-10 20:20:00,
2013-09-10 16:30:00,85.7,72.6,30.15,West,269,1.0,1.0,65,0.00,,,0.00,Wunderground v.1.15,2013-09-10 20:30:00,
2013-09-10 16:40:00,85.4,74.1,30.15,West,269,0.0,0.0,69,0.00,,,0.00,Wunderground v.1.15,2013-09-10 20:40:00,
2013-09-10 16:50:00,85.2,73.4,30.14,West,269,0.0,0.0,68,0.00,,,0.00,Wunderground v.1.15,2013-09-10 20:50:00,
2013-09-10 17:00:00,84.9,73.2,30.14,West,269,0.0,0.0,68,0.00,,,0.00,Wunderground v.1.15,2013-09-10 21:00:00,
2013-09-10 17:10:00,84.5,74.5,30.14,West,269,0.0,0.0,72,0.00,,,0.00,Wunderground v.1.15,2013-09-10 21:10:00,
2013-09-10 17:20:00,84.2,74.2,30.14,West,269,0.0,0.0,72,0.00,,,0.00,Wunderground v.1.15,2013-09-10 21:20:00,
2013-09-10 17:30:00,83.8,73.8,30.14,West,269,0.0,0.0,72,0.00,,,0.00,Wunderground v.1.15,2013-09-10 21:30:00,
2013-09-10 17:40:00,83.7,73.7,30.14,West,269,0.0,0.0,72,0.00,,,0.00,Wunderground v.1.15,2013-09-10 21:40:00,
2013-09-10 17:50:00,83.6,73.2,30.14,West,269,0.0,0.0,71,0.00,,,0.00,Wunderground v.1.15,2013-09-10 21:50:00,
2013-09-10 18:00:00,83.6,73.2,30.14,West,269,0.0,0.0,71,0.00,,,0.00,Wunderground v.1.15,2013-09-10 22:00:00,
2013-09-10 18:10:00,83.2,73.2,30.14,West,269,0.0,0.0,72,0.00,,,0.00,Wunderground v.1.15,2013-09-10 22:10:00,
2013-09-10 18:20:00,82.8,73.7,30.14,West,269,0.0,0.0,74,0.00,,,0.00,Wunderground v.1.15,2013-09-10 22:20:00,
2013-09-10 18:30:00,82.4,73.7,30.14,West,269,0.0,0.0,75,0.00,,,0.00,Wunderground v.1.15,2013-09-10 22:30:00,
2013-09-10 18:40:00,81.8,73.9,30.14,West,269,0.0,0.0,77,0.00,,,0.00,Wunderground v.1.15,2013-09-10 22:40:00,
2013-09-10 18:50:00,81.3,73.8,30.14,West,269,0.0,0.0,78,0.00,,,0.00,Wunderground v.1.15,2013-09-10 22:50:00,
2013-09-10 19:00:00,80.8,73.3,30.14,West,269,0.0,0.0,78,0.00,,,0.00,Wunderground v.1.15,2013-09-10 23:00:00,
2013-09-10 19:10:00,80.0,73.3,30.14,West,269,0.0,0.0,80,0.00,,,0.00,Wunderground v.1.15,2013-09-10 23:10:00,
2013-09-10 19:20:00,79.2,72.9,30.14,West,269,0.0,0.0,81,0.00,,,0.00,Wunderground v.1.15,2013-09-10 23:20:00,
2013-09-10 19:30:00,78.4,72.4,30.14,West,269,0.0,0.0,82,0.00,,,0.00,Wunderground v.1.15,2013-09-10 23:30:00,
2013-09-10 19:40:00,77.6,72.0,30.14,West,269,0.0,0.0,83,0.00,,,0.00,Wunderground v.1.15,2013-09-10 23:40:00,
2013-09-10 19:50:00,77.1,71.5,30.14,West,269,0.0,0.0,83,0.00,,,0.00,Wunderground v.1.15,2013-09-10 23:50:00,
2013-09-10 20:00:00,76.4,70.9,30.15,West,269,0.0,0.0,83,0.00,,,0.00,Wunderground v.1.15,2013-09-11 00:00:00,
2013-09-10 20:10:00,76.0,70.5,30.15,West,269,0.0,0.0,83,0.00,,,0.00,Wunderground v.1.15,2013-09-11 00:10:00,
2013-09-10 20:20:00,75.5,70.0,30.16,West,269,0.0,0.0,83,0.00,,,0.00,Wunderground v.1.15,2013-09-11 00:20:00,
2013-09-10 20:30:00,75.2,69.7,30.16,West,269,0.0,0.0,83,0.00,,,0.00,Wunderground v.1.15,2013-09-11 00:30:00,
2013-09-10 20:40:00,74.8,69.3,30.17,West,269,0.0,0.0,83,0.00,,,0.00,Wunderground v.1.15,2013-09-11 00:40:00,
2013-09-10 20:50:00,74.5,69.0,30.17,West,269,0.0,0.0,83,0.00,,,0.00,Wunderground v.1.15,2013-09-11 00:50:00,
2013-09-10 21:00:00,74.2,69.1,30.18,West,269,0.0,0.0,84,0.00,,,0.00,Wunderground v.1.15,2013-09-11 01:00:00,
2013-09-10 21:10:00,73.7,68.9,30.18,West,269,0.0,0.0,85,0.00,,,0.00,Wunderground v.1.15,2013-09-11 01:10:00,
2013-09-10 21:20:00,73.3,68.5,30.18,West,269,0.0,0.0,85,0.00,,,0.00,Wunderground v.1.15,2013-09-11 01:20:00,
2013-09-10 21:30:00,72.9,68.1,30.18,West,269,0.0,0.0,85,0.00,,,0.00,Wunderground v.1.15,2013-09-11 01:30:00,
2013-09-10 21:40:00,72.6,68.2,30.19,West,269,0.0,0.0,86,0.00,,,0.00,Wunderground v.1.15,2013-09-11 01:40:00,
2013-09-10 21:50:00,72.2,67.8,30.20,West,269,0.0,0.0,86,0.00,,,0.00,Wunderground v.1.15,2013-09-11 01:50:00,
2013-09-10 22:00:00,71.9,67.5,30.20,West,269,0.0,0.0,86,0.00,,,0.00,Wunderground v.1.15,2013-09-11 02:00:00,
2013-09-10 22:10:00,71.5,67.1,30.20,West,269,0.0,0.0,86,0.00,,,0.00,Wunderground v.1.15,2013-09-11 02:10:00,
2013-09-10 22:20:00,71.4,67.3,30.21,West,269,0.0,0.0,87,0.00,,,0.00,Wunderground v.1.15,2013-09-11 02:20:00,
2013-09-10 22:30:00,71.3,67.6,30.21,West,269,0.0,0.0,88,0.00,,,0.00,Wunderground v.1.15,2013-09-11 02:30:00,
2013-09-10 22:40:00,71.0,67.3,30.21,West,269,0.0,0.0,88,0.00,,,0.00,Wunderground v.1.15,2013-09-11 02:40:00,
2013-09-10 22:50:00,70.7,67.0,30.21,West,269,0.0,0.0,88,0.00,,,0.00,Wunderground v.1.15,2013-09-11 02:50:00,
2013-09-10 23:00:00,70.4,67.0,30.20,West,269,0.0,0.0,89,0.00,,,0.00,Wunderground v.1.15,2013-09-11 03:00:00,
2013-09-10 23:10:00,70.2,66.8,30.21,West,269,0.0,0.0,89,0.00,,,0.00,Wunderground v.1.15,2013-09-11 03:10:00,
2013-09-10 23:20:00,69.9,66.5,30.21,West,269,0.0,0.0,89,0.00,,,0.00,Wunderground v.1.15,2013-09-11 03:20:00,
2013-09-10 23:30:00,69.9,66.8,30.21,West,269,0.0,0.0,90,0.00,,,0.00,Wunderground v.1.15,2013-09-11 03:30:00,
2013-09-10 23:40:00,69.8,66.7,30.21,West,269,0.0,0.0,90,0.00,,,0.00,Wunderground v.1.15,2013-09-11 03:40:00,
2013-09-10 23:50:00,69.8,66.7,30.20,West,269,0.0,0.0,90,0.00,,,0.00,Wunderground v.1.15,2013-09-11 03:50:00,